Location: ?????????
(41.2286°N, 23.0068°E)
Time: 02:00:32
(UTC+00:00)

CZ-4 R/B - Pass Details

Date: 08 November 2025
Orbit: 675 x 744 km, 98.7° (Epoch: 07 December)

Event Time Altitude Azimuth Distance (km) Brightness Sun altitude
Rises 03:51:55 0° 9° (N) 3,167 7.2 -14.5°
Reaches altitude 10° 03:54:15 10° 5° (N) 2,232 6.4 -14.1°
Maximum altitude 03:59:02 56° 288° (WNW) 856 3.9 -13.2°
Drops below altitude 10° 04:03:42 10° 211° (SSW) 2,174 6.2 -12.3°
Sets 04:05:57 0° 207° (SSW) 3,077 7.0 -11.9°
